Tracking 27107 objects as of 21-Mar-2023
HD Live streaming from Space Station
objects crossing your sky now

IRIDIUM 24

Track IRIDIUM 24 now!
10-day predictions
IRIDIUM 24 is classified as:


NORAD ID: 25105
Int'l Code: 1997-082B
Perigee: 757.4 km
Apogee: 770.7 km
Inclination: 86.4 °
Period: 100.0 minutes
Semi major axis: 7135 km
RCS: 4.2836 m2 (large)
Launch date: December 20, 1997
Source: United States (US)
Launch site: AIR FORCE WESTERN TEST RANGE (AFWTR)
Your satellite tracking list
Your tracking list is empty




NASA's NSSDC Master Catalog

Two Line Element Set (TLE):
1 25105U 97082B   23080.31521740  .00000845  00000-0  25965-3 0  9992
2 25105  86.3877  66.9338 0009329 258.5035 101.5117 14.40491229325529
Source of the keplerian elements: AFSPC